sat.trackr.live / text

‹ back to catalog

YUNHAI-2 02E

NORAD 59284 · 2024-052E

PAYLOAD ACTIVE UNKNOWN

§ Identity

Operator
Country
PRC
Launch date
2024-03-21
Launch site
JSC
Launch vehicle
Mass (kg)
RCS (m²)

External: N2YO · Heavens-Above · Gunter

§ Orbital elements

Epoch: 2026-05-25T04:08:54.499200Z

Period
100.84 min
Inclination
50.0114°
Eccentricity
0.0012050
Mean motion
14.27955055 rev/d
Perigee alt
789.9 km
Apogee alt
807.2 km
Semi-major
7,176.7 km
B*
7.5774e-5
RAAN
60.3106°
Arg perigee
337.9894°
Mean anomaly
22.0502°
Rev number
10,364

§ Raw data

YUNHAI-2 02E1 59284U 24052E   26145.17285300  .00000028  00000+0  75774-4 0  99982 59284  50.0114  60.3106 0012050 337.9894  22.0502 14.27955055103646

JSON: /api/v1/satellites/59284 · /tle

For live sub-satellite position, see the globe view (requires WebGL).

§ Visibility from observer

Set your observer location to see the next 7 days of passes ≥ 10°. The values pass through the URL so the page stays shareable.

No JS? Fill the form by hand. The geolocation button needs JavaScript.